THORAD AGENA D DEB, 5347

Orbit data source: Space-Track

THORAD AGENA D DEB, 5347 is space debris in SSO originally from a launch on Wed, 08 Apr 1970 UTC launched from the Air Force Western Test Range (AFWTR). Debris objects in space refer to the collection of defunct objects orbiting the Earth. Examples of debris include non-operational satellites, rocket bodies, and fragments generated from explosions, collisions, or faulty payload assembly.

Loading next visibility...
Identifier
5347, 1970-025KL
Orbit
SSO
Country
Flag of USUS
Related business
Manufacturer
Unknown
Mission
Spacecraft
Bus & Motor
Unknown
Mass
Unknown
Launch date (UTC)
1970-04-08 (56 years ago)
Launch vehicle
Unknown
Launch site
Air Force Western Test Range (AFWTR)
Object type
Payload
Rocket body
Debris
Shape & HBR
Unknown shape, 0.1 m
Radar Cross Section
Medium (>0.1 m² and <1 m²)

Expand to show TLE details & history
Last TLE update: 13 hours ago

TLE from 13 hours ago
0 THORAD AGENA D DEB
1 05347U 70025KL  26255.75318530  .00000446  00000-0  41955-3 0  9996
2 05347  99.9055 175.9868 0044562 325.4509  61.5787 13.87119072769051
Epoch: 2026-09-12T18:04Z
TLE epoch observation values (Epoch: 2026-09-12T18:04:35.209Z)
Latitude
27.07575°
Longitude
-92.01219°
Altitude
926.563 km
Speed
7.399 km/s
True Right ascension
11h 23m 34s
True Declination
26° 56' 23"
Sunlit
Object was in daylight at epoch
Visualization orbit readout
Latitude
Unknown
Longitude
Unknown
Altitude
Unknown
Speed
Unknown
Apparent Right ascension
Unknown
Apparent Declination
Unknown
Sunlit
N/A
Visualization observer readout
Local Sidereal Time
23:49:08
Azimuth
Unknown
Elevation
Unknown
Doppler factor
Unknown
Orbital elements
Apogee altitude
968.6 km
Perigee altitude
903.414 km
Semi-major axis
7,314.144 km
Eccentricity
0.00446
Inclination
99.9055°
RAAN
175.9868°
Arg. of periapsis
325.4509°
True anomaly
62.02899°
Mean anomaly
61.5787°
Eccentric anomaly
61.80372°
Mean motion
3.46975 °/min
Orbital period
103.75 mins
BSTAR
0.00041955
Loading maneuver chart data...
Computing Atmospheric mass density...

Documentation

Showing up to 5 results
|